Tracking 35275 objects as of 8-Sep-2026
HD Live streaming from Space Station
objects crossing your sky now

STARLINK-33830

Track STARLINK-33830 now!
10-day predictions
STARLINK-33830 is classified as:


NORAD ID: 63587
Int'l Code: 2025-076U
Launch date: April 14, 2025
Source: United States (US)
Launch site: AIR FORCE EASTERN TEST RANGE (AFETR)
Your satellite tracking list
Your tracking list is empty




NASA's NSSDC Master Catalog

Two Line Element Set (TLE):
1 63587U 25076U   26251.40025110  .00014790  00000-0  54563-3 0  9995
2 63587  43.0000   9.8290 0001286 232.0553 128.0183 15.27596823 79774
Source of the keplerian elements: AFSPC